Tracking 30970 objects as of 3-Jul-2025
HD Live streaming from Space Station
objects crossing your sky now

STARLINK-31572

Track STARLINK-31572 now!
10-day predictions
STARLINK-31572 is classified as:


NORAD ID: 59333
Int'l Code: 2024-057P
Perigee: 489.2 km
Apogee: 491.2 km
Inclination: 43.0 °
Period: 94.3 minutes
Semi major axis: 6861 km
RCS: Unknown
Launch date: March 25, 2024
Source: United States (US)
Launch site: AIR FORCE EASTERN TEST RANGE (AFETR)
Your satellite tracking list
Your tracking list is empty




NASA's NSSDC Master Catalog

Two Line Element Set (TLE):
1 59333U 24057P   25183.68826130 -.00000291  00000-0 -10492-5 0  9999
2 59333  43.0034 170.2779 0001437 268.1640  91.9047 15.27578370 71478
Source of the keplerian elements: AFSPC